This is the latest recevied weather packets stored in our database for station/object KI7MOQ. If no packets are shown the sender has not sent any weather packets the latest 1 day(s).
| Time | Temp. | Humidity | Pressure | Rain* | Wind** | Luminosity | Snow |
|---|---|---|---|---|---|---|---|
| 1778032537 | 17.22° C | 72% | 1017.6 hPa | 0 mm | - | 24 W/m² | - |
| 1778031931 | 17.22° C | 71% | 1017.6 hPa | 0 mm | - | 30 W/m² | - |
| 1778031626 | 17.22° C | 71% | 1017.6 hPa | 0 mm | - | 36 W/m² | - |
| 1778031325 | 17.22° C | 71% | 1017.6 hPa | 0 mm | - | 40 W/m² | - |
| 1778031021 | 17.22° C | 71% | 1017.9 hPa | 0 mm | - | 35 W/m² | - |
| 1778030112 | 17.22° C | 73% | 1017.6 hPa | 0 mm | - | 34 W/m² | - |
| 1778028595 | 17.22° C | 72% | 1017.7 hPa | 0 mm | - | 35 W/m² | - |
| 1778028294 | 17.22° C | 72% | 1017.8 hPa | 0 mm | - | 38 W/m² | - |
| 1778027990 | 16.67° C | 73% | 1017.8 hPa | 0 mm | - | 37 W/m² | - |
| 1778027686 | 16.67° C | 72% | 1017.7 hPa | 0 mm | - | 37 W/m² | - |
| 1778027383 | 17.22° C | 72% | 1017.9 hPa | 0 mm | - | 37 W/m² | - |
| 1778027079 | 17.22° C | 71% | 1017.8 hPa | 0 mm | - | 34 W/m² | - |
| 1778026774 | 17.22° C | 72% | 1017.7 hPa | 0 mm | - | 33 W/m² | - |
| 1778026169 | 16.67° C | 73% | 1017.9 hPa | 0 mm | - | 40 W/m² | - |
| 1778024352 | 16.67° C | 73% | 1018.3 hPa | 0 mm | - | 31 W/m² | - |
| 1778024050 | 16.67° C | 73% | 1018.2 hPa | 0 mm | - | 32 W/m² | - |
| 1778023747 | 17.22° C | 73% | 1018.4 hPa | 0 mm | - | 33 W/m² | - |
| 1778023141 | 17.22° C | 72% | 1018.3 hPa | 0 mm | - | 40 W/m² | - |
| 1778022235 | 17.22° C | 73% | 1018.4 hPa | 0 mm | - | 47 W/m² | - |
| 1778021021 | 17.22° C | 72% | 1018.4 hPa | 0 mm | - | 44 W/m² | - |
| 1778020110 | 17.22° C | 72% | 1018.5 hPa | 0 mm | - | 68 W/m² | - |
| 1778019504 | 17.22° C | 72% | 1018.5 hPa | 0 mm | - | 75 W/m² | - |
| 1778018293 | 17.22° C | 72% | 1018.6 hPa | 0 mm | - | 96 W/m² | - |
| 1778016780 | 17.22° C | 73% | 1018.8 hPa | 0 mm | - | 78 W/m² | - |
| 1778016475 | 16.67° C | 74% | 1018.8 hPa | 0 mm | - | 89 W/m² | - |
* Rain latest hour (hover to see other rain measurements)
** Current wind speed in m/s (hover to see current wind gust speed)